Flag for Germany Weather past 2 weeks in Kiel, Schleswig-Holstein, Germany

Now
64 °F

Broken clouds.


Feels Like: 64 °F
Forecast: 52 / 62 °F
Wind: 12 mph from South

Location: Kiel / Holtenau Civilian

Current Time: Aug 30, 2014 at 6:53:36 PM

Latest Report: Aug 30, 2014 at 5:50 PM


Visibility: N/A

Pressure: 29.92 "Hg

Humidity: 83%

Dew point: 59 °F

Location of KielLocation

Historic Weather in Kiel — Graph

°F

Kiel temperature yesterday

Maximum temperature yesterday: 68 °F (at 2:20 PM)
Minimum temperature yesterday: 59 °F (at 6:50 AM)
Average temperature yesterday: 64 °F

Past Weeks' High & Low Weather Summary

 TemperatureHumidityPressure
High68 °F (Aug 27, 1:50 PM)100% (Aug 28, 8:20 AM)30.04 "Hg (Aug 28, 8:20 AM)
Low50 °F (Aug 23, 8:20 AM)43% (Aug 27, 2:50 PM)29.42 "Hg (Aug 18, 10:50 AM)
Average59 °F73%29.83 "Hg
* Reported Aug 15 5:20 PM — Aug 30 5:20 PM, Kiel, Weather by CustomWeather, © 2014

Note: Actual official high and low records may vary slightly from our data, if they occured in-between our weather recording intervals... More about our weather records

Advertising

Kiel weather history for previous 24 hours

 ConditionsComfort  
Time TempWeatherWind HumidityBarometerVisibility
5:20 PM
Aug 30
64 °FBroken clouds.9 mph83%29.92 "HgN/A
4:50 PM63 °FPartly sunny.9 mph88%29.92 "HgN/A
4:20 PM64 °FBroken clouds.12 mph78%29.92 "HgN/A
3:50 PM66 °FScattered clouds.12 mph78%29.92 "HgN/A
3:20 PM66 °FScattered clouds.9 mph78%29.92 "HgN/A
2:50 PM64 °FPartly sunny.12 mph78%29.92 "HgN/A
2:20 PM63 °FBroken clouds.12 mph88%29.92 "HgN/A
1:50 PM61 °FBroken clouds.12 mph94%29.92 "HgN/A
1:20 PM59 °FSprinkles. Mostly cloudy.9 mph94%29.92 "Hg4 mi
12:50 PM59 °FSprinkles. Fog.10 mph94%29.92 "Hg1 mi
12:20 PM61 °FLight rain. Fog.14 mph88%29.92 "Hg2 mi
11:50 AM61 °FLight rain. Overcast.12 mph83%29.92 "HgN/A
11:20 AM61 °FMostly cloudy.16 mph83%29.92 "HgN/A
10:50 AM61 °FMore clouds than sun.9 mph83%29.92 "HgN/A
10:20 AM61 °FPartly sunny.12 mph83%29.92 "HgN/A
9:50 AM61 °FPartly sunny.12 mph83%29.92 "HgN/A
9:20 AM61 °FSunny.8 mph83%29.92 "Hg10 mi
8:50 AM59 °FSunny.10 mph88%29.92 "Hg10 mi
8:20 AM59 °FSunny.6 mph82%29.92 "Hg10 mi
Weather by CustomWeather, © 2014

See weather overviewHow to use our weather pages